Date String (YYYY-MM-DD hh:mm:ss) UTC,Instrument flags,Ambient pressure (hPa),Sample flow (lpm),Bypass flow (lpm),Sample temperature (°C),Ambient temperature (°C),ASC tube jacket temperature (°C),LED temperature (°C),Box temperature (°C),Sample RH (%),Span deviation,Mass concentration (μg/m³),Mass concentration (μg/m³),Mass concentration (μg/m³)
DateTimeUTC,F1_M11,P_M11,Q1_M11,Q2_M11,T1_M11,T2_M11,T3_M11,T4_M11,T5_M11,U1_M11,ZSPAN_M11,X0_M11,X2_M11,X1_M11
2022-07-01 21:00:00,,0829.1,5.00,0.00,29.4,28.5,00.0,38.1,31.5,27.8,0000.0,0015.41,0005.42,0004.16
2022-07-01 21:01:00,,0829.0,4.99,0.00,29.5,28.3,00.0,38.1,31.5,27.7,0000.0,0015.04,0005.34,0004.14
2022-07-01 21:02:00,,0828.7,5.00,0.00,29.4,27.6,00.0,38.0,31.3,28.2,0000.0,0013.75,0005.25,0004.14
2022-07-01 21:03:00,,0828.7,5.00,0.00,29.4,27.1,00.0,38.0,31.2,28.3,0000.0,0012.85,0005.20,0004.13
2022-07-01 21:04:00,,0828.5,4.99,0.00,29.3,27.1,00.0,38.0,31.1,27.9,0000.0,0013.49,0005.18,0004.13
2022-07-01 21:05:00,,0828.5,5.00,0.00,29.3,27.1,00.0,38.0,31.1,27.7,0000.0,0013.84,0005.13,0004.12
2022-07-01 21:06:00,,0828.5,5.00,0.00,29.2,27.3,00.0,38.0,31.1,27.9,0000.0,0013.63,0005.17,0004.12
2022-07-01 21:07:00,,0828.4,5.00,0.00,29.3,27.5,00.0,38.0,31.1,27.9,0000.0,0013.80,0005.19,0004.13
2022-07-01 21:08:00,,0828.4,5.00,0.00,29.3,27.7,00.0,38.0,31.2,28.3,0000.0,0013.29,0005.19,0004.13
2022-07-01 21:09:00,,0828.4,4.99,0.00,29.3,27.9,00.0,38.0,31.3,28.5,0000.0,0013.66,0005.18,0004.12
2022-07-01 21:10:00,,0828.4,4.99,0.00,29.3,28.1,00.0,38.0,31.3,27.8,0000.0,0014.62,0005.18,0004.11
2022-07-01 21:11:00,,0828.5,5.01,0.00,29.4,28.2,00.0,38.0,31.4,27.6,0000.0,0014.70,0005.14,0004.11
2022-07-01 21:12:00,,0828.3,5.00,0.00,29.4,28.4,00.0,38.1,31.4,28.0,0000.0,0015.41,0005.17,0004.12
2022-07-01 21:13:00,,0828.3,4.99,0.00,29.4,28.5,00.0,38.1,31.5,28.6,0000.0,0015.45,0005.20,0004.11
2022-07-01 21:14:00,,0828.3,4.99,0.00,29.5,28.2,00.0,38.1,31.4,28.3,0000.0,0016.34,0005.23,0004.11
2022-07-01 21:15:00,,0828.3,5.01,0.00,29.4,27.5,00.0,38.0,31.3,28.1,0000.0,0015.89,0005.19,0004.10
2022-07-01 21:16:00,,0828.2,5.00,0.00,29.4,27.1,00.0,38.0,31.2,28.2,0000.0,0016.71,0005.16,0004.08
2022-07-01 21:17:00,,0828.2,5.01,0.00,29.3,27.1,00.0,38.0,31.1,27.8,0000.0,0017.40,0005.20,0004.09
2022-07-01 21:18:00,,0828.3,5.00,0.00,29.3,27.2,00.0,38.0,31.1,28.2,0000.0,0017.51,0005.18,0004.09
2022-07-01 21:19:00,,0828.3,4.99,0.00,29.3,27.4,00.0,38.0,31.1,28.2,0000.0,0017.57,0005.17,0004.09
2022-07-01 21:20:00,,0828.3,5.00,0.00,29.3,27.6,00.0,38.0,31.2,28.6,0000.0,0017.41,0005.14,0004.08
2022-07-01 21:21:00,,0828.3,5.00,0.00,29.3,27.8,00.0,38.0,31.2,28.1,0000.0,0016.40,0005.09,0004.08
2022-07-01 21:22:00,,0828.2,5.00,0.00,29.3,28.0,00.0,38.0,31.3,27.8,0000.0,0015.57,0005.09,0004.08
2022-07-01 21:23:00,,0828.3,5.00,0.00,29.3,28.1,00.0,38.0,31.3,28.2,0000.0,0014.49,0005.06,0004.06
2022-07-01 21:24:00,,0828.2,5.01,0.00,29.4,28.3,00.0,38.1,31.4,28.3,0000.0,0015.13,0005.04,0004.06
2022-07-01 21:25:00,,0828.2,5.00,0.00,29.4,28.4,00.0,38.1,31.4,27.6,0000.0,0015.96,0005.05,0004.07
2022-07-01 21:26:00,,0828.3,5.01,0.00,29.5,28.5,00.0,38.1,31.5,27.5,0000.0,0016.66,0005.10,0004.07
2022-07-01 21:27:00,,0828.2,5.01,0.00,29.5,28.1,00.0,38.1,31.4,27.4,0000.0,0015.90,0005.17,0004.07
2022-07-01 21:28:00,,0828.2,4.99,0.00,29.4,27.4,00.0,38.0,31.3,27.3,0000.0,0015.95,0005.12,0004.06
2022-07-01 21:29:00,,0828.2,5.02,0.00,29.4,27.1,00.0,38.0,31.2,26.8,0000.0,0016.08,0005.12,0004.06
2022-07-01 21:30:00,,0828.1,4.98,0.00,29.3,27.1,00.0,38.0,31.1,26.3,0000.0,0016.39,0005.10,0004.04
2022-07-01 21:31:00,,0828.1,5.01,0.00,29.3,27.3,00.0,38.0,31.1,26.5,0000.0,0016.69,0005.09,0004.04
2022-07-01 21:32:00,,0828.1,4.99,0.00,29.3,27.5,00.0,38.0,31.2,26.6,0000.0,0017.39,0005.07,0004.02
2022-07-01 21:33:00,,0828.0,5.00,0.00,29.3,27.7,00.0,38.0,31.2,26.8,0000.0,0017.35,0005.06,0004.01
2022-07-01 21:34:00,,0828.1,4.99,0.00,29.3,27.9,00.0,38.0,31.3,27.4,0000.0,0017.31,0005.03,0004.01
2022-07-01 21:35:00,,0828.1,5.00,0.00,29.3,28.0,00.0,38.0,31.3,26.4,0000.0,0016.66,0005.07,0004.02
2022-07-01 21:36:00,,0828.0,5.00,0.00,29.4,28.2,00.0,38.0,31.4,26.5,0000.0,0015.23,0005.07,0004.02
2022-07-01 21:37:00,,0828.0,5.00,0.00,29.4,28.4,00.0,38.1,31.4,26.6,0000.0,0014.57,0005.06,0004.02
2022-07-01 21:38:00,,0828.0,4.99,0.00,29.5,28.5,00.0,38.1,31.5,26.1,0000.0,0014.52,0005.07,0004.01
2022-07-01 21:39:00,,0828.0,5.00,0.00,29.5,28.2,00.0,38.1,31.4,25.9,0000.0,0014.04,0005.04,0004.00
2022-07-01 21:40:00,,0828.0,4.99,0.00,29.4,27.5,00.0,38.0,31.3,25.8,0000.0,0014.11,0005.04,0003.99
2022-07-01 21:41:00,,0827.9,5.01,0.00,29.4,27.1,00.0,38.0,31.2,25.7,0000.0,0014.94,0005.06,0003.99
2022-07-01 21:42:00,,0827.9,5.00,0.00,29.3,27.1,00.0,38.0,31.1,25.8,0000.0,0014.34,0005.05,0003.99
2022-07-01 21:43:00,,0827.9,5.00,0.00,29.3,27.2,00.0,38.0,31.1,26.0,0000.0,0013.73,0005.10,0003.99
2022-07-01 21:44:00,,0827.9,5.00,0.00,29.3,27.4,00.0,38.0,31.2,26.0,0000.0,0014.20,0005.11,0003.99
2022-07-01 21:45:00,,0827.8,5.00,0.00,29.3,27.6,00.0,38.0,31.2,25.9,0000.0,0014.47,0005.10,0003.98
2022-07-01 21:46:00,,0827.9,5.00,0.00,29.3,27.8,00.0,38.0,31.3,26.0,0000.0,0014.47,0005.08,0003.99
2022-07-01 21:47:00,,0827.9,5.01,0.00,29.3,28.0,00.0,38.0,31.3,25.9,0000.0,0014.52,0005.05,0003.97
2022-07-01 21:48:00,,0827.8,5.00,0.00,29.4,28.2,00.0,38.1,31.4,25.8,0000.0,0015.02,0005.03,0003.96
2022-07-01 21:49:00,,0827.9,5.00,0.00,29.4,28.3,00.0,38.1,31.4,26.0,0000.0,0014.50,0004.96,0003.94
2022-07-01 21:50:00,,0827.9,5.00,0.00,29.4,28.2,00.0,38.1,31.4,26.1,0000.0,0014.67,0004.95,0003.94
2022-07-01 21:51:00,,0827.7,5.00,0.00,29.4,27.6,00.0,38.0,31.3,25.8,0000.0,0013.87,0004.88,0003.93
2022-07-01 21:52:00,,0827.7,5.01,0.00,29.4,27.1,00.0,38.0,31.2,25.8,0000.0,0013.76,0004.83,0003.94
2022-07-01 21:53:00,,0827.7,5.00,0.00,29.3,27.0,00.0,38.0,31.1,26.1,0000.0,0014.26,0004.80,0003.93
2022-07-01 21:54:00,,0827.8,4.99,0.00,29.3,27.2,00.0,38.0,31.1,26.0,0000.0,0014.57,0004.76,0003.92
2022-07-01 21:55:00,,0827.9,4.99,0.00,29.3,27.3,00.0,38.0,31.1,26.2,0000.0,0014.26,0004.78,0003.92
2022-07-01 21:56:00,,0827.9,5.01,0.00,29.3,27.5,00.0,38.0,31.2,25.8,0000.0,0014.48,0004.80,0003.92
2022-07-01 21:57:00,,0827.9,5.01,0.00,29.3,27.7,00.0,38.0,31.2,25.5,0000.0,0015.18,0004.79,0003.92
2022-07-01 21:58:00,,0827.9,4.99,0.00,29.3,27.9,00.0,38.0,31.3,25.4,0000.0,0015.92,0004.85,0003.92
2022-07-01 21:59:00,,0827.8,5.00,0.00,29.3,28.1,00.0,38.0,31.3,25.2,0000.0,0015.64,0004.90,0003.91
